Change the Weather History Date:

Thursday, January 10, 2013

  Actual Average Record
Temperature  
Mean Temperature 32 °F -  
Max Temperature 43 °F 27 °F 48 °F (1950)
Min Temperature 22 °F 14 °F -8 °F (1982)
Degree Days  
Heating Degree Days 32    
Moisture  
Dew Point 24 °F    
Average Humidity 66    
Maximum Humidity 87    
Minimum Humidity 40    
Precipitation  
Precipitation 0.13 in - - ()
Sea Level Pressure  
Sea Level Pressure 30.36 in    
Wind  
Wind Speed 5 mph (SE)    
Max Wind Speed 15 mph    
Max Gust Speed 23 mph    
Visibility 10 miles    
Events Rain    
Averages and records for this station are not official NWS values.
T = Trace of Precipitation, MM = Missing Value Source: NWS Daily Summary

Daily Weather History Graph

Daily Weather History Graph

Search for Another Location

Airport or City:

Trip Planner

Search our weather history database for the weather conditions in past years. The results will help you decide how hot, cold, wet, or windy it might be!

Date:

Astronomy

Jan. 10, 2013 Rise Set
Actual Time 8:19 AM EST 5:27 PM EST
Civil Twilight 7:46 AM EST 6:00 PM EST
Nautical Twilight 7:10 AM EST 6:36 PM EST
Astronomical Twilight 6:35 AM EST 7:10 PM EST
Moon 6:58 AM EST (1/10) 4:35 PM EST (1/10)
Length of Visible Light 10h 13m
Length of Day
9h 08m
Waning Crescent, 2% of the Moon is Illuminated
Jan 10
Waning Crescent
Jan 11
New
Jan 18
First Quarter
Jan 26
Full
Feb 3
Last Quarter

Hourly Weather History & Observations

Time (EST) Temp. Windchill Dew Point Humidity Pressure Visibility Wind Dir Wind Speed Gust Speed Precip Events Conditions
12:15 AM 35.1 °F 30.1 °F 25.0 °F 67% 30.40 in 10.0 mi NNW 5.8 mph - N/A   Clear
12:35 AM 35.1 °F 30.1 °F 25.5 °F 68% 30.41 in 10.0 mi NNW 5.8 mph - N/A   Clear
12:55 AM 32.5 °F 26.2 °F 24.6 °F 73% 30.40 in 10.0 mi North 6.9 mph - N/A   Clear
1:15 AM 35.1 °F - 26.6 °F 71% 30.41 in 10.0 mi Calm Calm - N/A   Clear
1:35 AM 32.5 °F - 24.6 °F 73% 30.42 in 10.0 mi Calm Calm - N/A   Clear
1:55 AM 30.2 °F 26.7 °F 24.4 °F 79% 30.43 in 10.0 mi East 3.5 mph - N/A   Clear
2:15 AM 30.2 °F - 25.5 °F 83% 30.45 in 10.0 mi Calm Calm - N/A   Clear
2:35 AM 30.2 °F 26.7 °F 25.5 °F 83% 30.46 in 10.0 mi East 3.5 mph - N/A   Clear
2:55 AM 27.9 °F - 23.5 °F 84% 30.48 in 10.0 mi Calm Calm - N/A   Clear
3:15 AM 30.2 °F - 25.3 °F 82% 30.49 in 10.0 mi Calm Calm - N/A   Clear
3:35 AM 30.2 °F - 25.2 °F 82% 30.50 in 10.0 mi Calm Calm - N/A   Clear
3:55 AM 30.2 °F - 25.0 °F 81% 30.49 in 10.0 mi Calm Calm - N/A   Clear
4:15 AM 25.3 °F - 21.2 °F 84% 30.50 in 10.0 mi Calm Calm - N/A   Clear
4:35 AM 27.9 °F - 23.9 °F 85% 30.50 in 10.0 mi Calm Calm - N/A   Clear
4:55 AM 27.9 °F - 23.5 °F 84% 30.50 in 10.0 mi Calm Calm - N/A   Clear
5:15 AM 27.1 °F - 23.2 °F 85% 30.50 in 10.0 mi Calm Calm - N/A   Clear
5:35 AM 23.2 °F - 19.6 °F 86% 30.50 in 10.0 mi Calm Calm - N/A   Clear
5:55 AM 25.9 °F - 22.5 °F 87% 30.50 in 10.0 mi Calm Calm - N/A   Clear
6:15 AM 25.3 °F - 21.7 °F 86% 30.50 in 10.0 mi Calm Calm - N/A   Clear
6:35 AM 26.1 °F - 22.3 °F 86% 30.50 in 10.0 mi Calm Calm - N/A   Clear
6:55 AM 26.2 °F - 22.5 °F 86% 30.50 in 10.0 mi Calm Calm - N/A   Clear
7:15 AM 27.9 °F 24.0 °F 23.9 °F 85% 30.50 in 10.0 mi SE 3.5 mph - N/A   Clear
7:34 AM 25.3 °F - 21.2 °F 84% 30.50 in 10.0 mi Calm Calm - N/A   Clear
7:55 AM 27.5 °F - 23.5 °F 85% 30.50 in 10.0 mi Calm Calm - N/A   Clear
8:15 AM 27.0 °F - 23.0 °F 85% 30.49 in 10.0 mi Calm Calm - N/A   Clear
8:35 AM 22.8 °F 18.2 °F 19.2 °F 86% 30.49 in 10.0 mi East 3.5 mph - N/A   Clear
8:55 AM 27.5 °F 23.6 °F 24.1 °F 87% 30.49 in 10.0 mi East 3.5 mph - N/A   Clear
9:15 AM 30.2 °F 26.7 °F 26.4 °F 86% 30.48 in 10.0 mi SE 3.5 mph - N/A   Clear
9:35 AM 31.6 °F 27.0 °F 25.7 °F 79% 30.49 in 10.0 mi SE 4.6 mph - N/A   Clear
9:55 AM 32.5 °F 29.3 °F 26.4 °F 78% 30.49 in 10.0 mi SE 3.5 mph - N/A   Clear
10:15 AM 35.1 °F 31.0 °F 28.2 °F 76% 30.48 in 10.0 mi SE 4.6 mph - N/A   Clear
10:55 AM 37.6 °F - 28.4 °F 69% 30.48 in 10.0 mi Calm Calm - N/A   Clear
11:15 AM 40.1 °F 34.1 °F 27.5 °F 61% 30.47 in 10.0 mi SSE 9.2 mph - N/A   Clear
11:35 AM 40.1 °F 35.3 °F 25.7 °F 56% 30.45 in 10.0 mi SSE 6.9 mph - N/A   Clear
11:55 AM 41.0 °F 35.2 °F 25.7 °F 55% 30.44 in 10.0 mi SSE 9.2 mph - N/A   Clear
12:15 PM 41.4 °F 35.2 °F 25.5 °F 53% 30.43 in 10.0 mi South 10.4 mph - N/A   Clear
12:35 PM 42.8 °F 37.0 °F 24.8 °F 49% 30.42 in 10.0 mi South 10.4 mph - N/A   Clear
12:55 PM 42.8 °F 37.5 °F 24.4 °F 48% 30.40 in 10.0 mi South 9.2 mph - N/A   Clear
1:15 PM 42.8 °F 37.5 °F 24.8 °F 49% 30.37 in 10.0 mi SE 9.2 mph - N/A   Clear
1:35 PM 41.9 °F 37.5 °F 23.9 °F 49% 30.36 in 10.0 mi SE 6.9 mph - N/A   Clear
1:55 PM 42.8 °F 37.5 °F 24.6 °F 49% 30.35 in 10.0 mi SE 9.2 mph - N/A   Clear
2:15 PM 42.8 °F 37.5 °F 23.2 °F 46% 30.34 in 10.0 mi SE 9.2 mph - N/A   Clear
2:35 PM 43.2 °F 39.0 °F 23.5 °F 46% 30.33 in 10.0 mi SE 6.9 mph - N/A   Clear
2:55 PM 43.2 °F 37.0 °F 22.6 °F 44% 30.33 in 10.0 mi SE 11.5 mph - N/A   Clear
3:15 PM 43.0 °F 38.2 °F 22.1 °F 44% 30.32 in 10.0 mi SE 8.1 mph - N/A   Clear
3:35 PM 43.3 °F 37.7 °F 22.1 °F 43% 30.30 in 10.0 mi SE 10.4 mph - N/A   Clear
3:55 PM 43.2 °F 38.4 °F 21.9 °F 43% 30.30 in 10.0 mi ESE 8.1 mph - N/A   Clear
4:15 PM 43.2 °F 38.4 °F 21.6 °F 42% 30.30 in 10.0 mi SE 8.1 mph - N/A   Clear
4:35 PM 43.0 °F 37.7 °F 21.0 °F 42% 30.29 in 10.0 mi ESE 9.2 mph - N/A   Clear
4:55 PM 42.8 °F 35.8 °F 20.5 °F 41% 30.28 in 10.0 mi ESE 13.8 mph - N/A   Clear
5:15 PM 42.8 °F 36.2 °F 19.6 °F 40% 30.27 in 10.0 mi ESE 12.7 mph - N/A   Clear
5:35 PM 41.5 °F 35.4 °F 20.1 °F 42% 30.27 in 10.0 mi ESE 10.4 mph 16.1 mph N/A   Clear
5:55 PM 41.4 °F 36.2 °F 21.4 °F 45% 30.26 in 10.0 mi SE 8.1 mph - N/A   Clear
6:14 PM 41.4 °F 35.2 °F 23.0 °F 48% 30.25 in 10.0 mi SE 10.4 mph - N/A   Clear
6:35 PM 40.5 °F 34.6 °F 23.2 °F 50% 30.24 in 10.0 mi ESE 9.2 mph - N/A   Clear
6:55 PM 40.1 °F 33.6 °F 23.9 °F 52% 30.23 in 10.0 mi ESE 10.4 mph - N/A   Clear
7:15 PM 40.1 °F 33.6 °F 24.4 °F 54% 30.22 in 10.0 mi ESE 10.4 mph - N/A   Clear
7:35 PM 40.1 °F 33.2 °F 24.6 °F 54% 30.20 in 10.0 mi ESE 11.5 mph - N/A   Clear
7:55 PM 40.1 °F 32.7 °F 23.9 °F 52% 30.20 in 10.0 mi ESE 12.7 mph - N/A   Clear
8:15 PM 40.1 °F 32.7 °F 23.9 °F 52% 30.19 in 10.0 mi ESE 12.7 mph - N/A   Mostly Cloudy
8:35 PM 40.1 °F 34.1 °F 23.7 °F 52% 30.17 in 10.0 mi ESE 9.2 mph 16.1 mph N/A   Overcast
8:55 PM 40.1 °F 33.6 °F 23.0 °F 51% 30.15 in 10.0 mi ESE 10.4 mph - N/A   Overcast
9:15 PM 40.1 °F 32.7 °F 23.9 °F 52% 30.14 in 10.0 mi ESE 12.7 mph 18.4 mph N/A Rain Light Rain
9:55 PM 40.1 °F 32.4 °F 24.4 °F 54% 30.10 in 10.0 mi SE 13.8 mph 20.7 mph N/A   Light Drizzle
10:15 PM 37.6 °F 29.1 °F 28.6 °F 70% 30.10 in 3.0 mi SE 13.8 mph 23.0 mph 0.01 in Rain Rain
10:35 PM 36.1 °F 27.3 °F 31.8 °F 84% 30.07 in 2.5 mi ESE 13.8 mph - 0.04 in Rain Light Rain
10:55 PM 35.6 °F 27.1 °F 31.8 °F 86% 30.05 in 7.0 mi ESE 12.7 mph 19.6 mph 0.06 in Rain Light Rain
11:15 PM 36.5 °F 27.8 °F 32.2 °F 84% 30.02 in 4.0 mi ESE 13.8 mph 20.7 mph 0.02 in Rain Light Rain
11:35 PM 36.5 °F 27.8 °F 32.5 °F 86% 30.02 in 5.0 mi ESE 13.8 mph 19.6 mph 0.05 in Rain Light Rain
11:55 PM 37.6 °F 28.8 °F 33.8 °F 86% 30.00 in 7.0 mi SE 15.0 mph 21.9 mph 0.07 in Rain Light Rain